Weather History for Hill City, KS

Change the Weather History Date:

Thursday, February 21, 2013

  Actual Average Record
Temperature  
Mean Temperature 18 °F 34 °F  
Max Temperature 21 °F 48 °F 77 °F (1977)
Min Temperature 14 °F 21 °F -8 °F (1978)
Degree Days  
Heating Degree Days 47    
Moisture  
Dew Point 16 °F    
Average Humidity 89    
Maximum Humidity 93    
Minimum Humidity 79    
Precipitation  
Precipitation 0.10 in 0.02 in 0.10 in (2013)
Month to date precipitation 0.53 0.38  
Year to date precipitation 0.62 0.83  
Sea Level Pressure  
Sea Level Pressure 29.90 in    
Wind  
Wind Speed 17 mph (NE)    
Max Wind Speed 22 mph    
Max Gust Speed 28 mph    
Visibility 2 miles    
Events Fog , Snow    
T = Trace of Precipitation, MM = Missing Value Source: NWS Daily Summary

Daily Weather History Graph

Daily Weather History Graph

Search for Another Location

Airport:

Trip Planner

Search our weather history database for the weather conditions in past years. The results will help you decide how hot, cold, wet, or windy it might be!

Date:

Astronomy

Feb. 21, 2013 Rise Set
Actual Time 7:23 AM CST 6:23 PM CST
Civil Twilight 6:55 AM CST 6:50 PM CST
Nautical Twilight 6:24 AM CST 7:21 PM CST
Astronomical Twilight 5:53 AM CST 7:52 PM CST
Moon 2:40 PM CST (2/21) 4:27 AM CST (2/21)
Length of Visible Light 11h 54m
Length of Day
11h 00m
Waxing Gibbous, 84% of the Moon is Illuminated
Feb 21
Waxing Gibbous
Feb 25
Full
Mar 4
Last Quarter
Mar 11
New
Mar 19
First Quarter

Hourly Weather History & Observations

Time (CST) Temp. Windchill Dew Point Humidity Pressure Visibility Wind Dir Wind Speed Gust Speed Precip Events Conditions
12:06 AM 21.2 °F 6.0 °F 19.4 °F 93% 29.96 in 2.5 mi ESE 19.6 mph 26.5 mph 0.00 in Snow Light Snow
12:25 AM 21.2 °F 5.6 °F 19.4 °F 93% 29.96 in 3.0 mi East 20.7 mph - 0.00 in Snow Light Snow
12:53 AM 19.9 °F 4.8 °F 18.0 °F 92% 30.02 in 4.0 mi East 18.4 mph - 0.00 in Snow Light Snow
1:00 AM 19.4 °F 4.1 °F 17.6 °F 93% 29.95 in 4.0 mi ESE 18.4 mph 26.5 mph 0.00 in Snow Light Snow
1:10 AM 19.4 °F 5.0 °F 17.6 °F 93% 29.94 in 1.8 mi East 16.1 mph - 0.01 in Snow Light Snow
1:27 AM 19.4 °F 5.0 °F 17.6 °F 93% 29.92 in 1.2 mi East 16.1 mph - 0.01 in Snow Light Snow
1:37 AM 19.4 °F 5.0 °F 17.6 °F 93% 29.90 in 1.5 mi East 16.1 mph 24.2 mph 0.01 in Snow Light Snow
1:48 AM 19.4 °F 5.0 °F 17.6 °F 93% 29.91 in 2.5 mi East 16.1 mph 27.6 mph 0.01 in Snow Light Snow
1:53 AM 19.9 °F 5.2 °F 17.1 °F 89% 30.00 in 3.0 mi East 17.3 mph 27.6 mph 0.01 in Snow Light Snow
2:00 AM 19.4 °F 4.5 °F 17.6 °F 93% 29.91 in 2.0 mi East 17.3 mph 26.5 mph 0.00 in Snow Light Snow
2:20 AM 19.4 °F 5.0 °F 17.6 °F 93% 29.90 in 1.8 mi East 16.1 mph - 0.00 in Snow Light Snow
2:53 AM 19.0 °F 5.0 °F 17.1 °F 92% 29.99 in 1.5 mi East 15.0 mph - 0.00 in Snow Light Snow
2:56 AM 19.4 °F 5.5 °F 17.6 °F 93% 29.90 in 1.2 mi East 15.0 mph - 0.00 in Snow Light Snow
3:35 AM 19.4 °F 4.5 °F 15.8 °F 86% 29.87 in 1.2 mi East 17.3 mph 26.5 mph 0.00 in Snow Light Snow
3:53 AM 18.0 °F 2.6 °F 16.0 °F 92% 29.96 in 1.5 mi East 17.3 mph - 0.00 in Snow Light Snow
4:22 AM 17.6 °F 3.7 °F 15.8 °F 93% 29.87 in 1.0 mi East 13.8 mph - 0.00 in Snow Light Snow
4:41 AM 17.6 °F 3.2 °F 15.8 °F 93% 29.86 in 1.8 mi ENE 15.0 mph - 0.01 in Snow Light Snow
4:53 AM 18.0 °F 3.6 °F 16.0 °F 92% 29.95 in 1.2 mi East 15.0 mph - 0.01 in Snow Light Snow
5:23 AM 17.6 °F 2.7 °F 15.8 °F 93% 29.88 in 1.5 mi East 16.1 mph - 0.00 in Snow Light Snow
5:37 AM 17.6 °F 2.7 °F 15.8 °F 93% 29.88 in 1.2 mi East 16.1 mph - 0.00 in Snow Light Snow
5:49 AM 17.6 °F 5.7 °F 15.8 °F 93% 29.88 in 0.8 mi ENE 10.4 mph - 0.00 in Snow Light Snow
5:53 AM 18.0 °F 3.6 °F 16.0 °F 92% 29.97 in 0.8 mi ENE 15.0 mph - 0.00 in Snow Light Snow
6:05 AM 17.6 °F 5.0 °F 15.8 °F 93% 29.89 in 1.0 mi ENE 11.5 mph - 0.00 in Snow Light Snow
6:25 AM 17.6 °F 2.7 °F 15.8 °F 93% 29.87 in 0.8 mi ENE 16.1 mph - 0.00 in Snow Light Snow
6:34 AM 17.6 °F 4.3 °F 15.8 °F 93% 29.89 in 1.0 mi ENE 12.7 mph - 0.00 in Snow Light Snow
6:46 AM 17.6 °F 3.2 °F 15.8 °F 93% 29.89 in 0.8 mi ENE 15.0 mph - 0.01 in Snow Light Snow
6:53 AM 18.0 °F 4.2 °F 15.1 °F 88% 29.98 in 0.8 mi ENE 13.8 mph - 0.01 in Snow Light Snow
7:06 AM 17.6 °F 5.7 °F 15.8 °F 93% 29.89 in 0.8 mi ENE 10.4 mph - 0.00 in Snow Light Snow
7:37 AM 17.6 °F 4.3 °F 15.8 °F 93% 29.88 in 0.2 mi NE 12.7 mph - 0.01 in Fog , Snow Snow
7:53 AM 17.1 °F 3.6 °F 15.1 °F 92% 29.98 in 0.5 mi ENE 12.7 mph - 0.02 in Fog , Snow Light Snow
8:53 AM 18.0 °F 3.6 °F 15.1 °F 88% 29.97 in 0.5 mi NE 15.0 mph - 0.01 in Fog , Snow Snow
9:53 AM 18.0 °F 2.6 °F 15.1 °F 88% 29.94 in 0.5 mi NE 17.3 mph - 0.00 in Fog , Snow Light Snow
10:19 AM 17.6 °F 1.7 °F 15.8 °F 93% 29.85 in 1.0 mi NE 18.4 mph - 0.00 in Snow Light Snow
10:46 AM 17.6 °F 3.2 °F 14.0 °F 86% 29.86 in 0.8 mi NE 15.0 mph - 0.00 in Snow Light Snow
10:53 AM 18.0 °F 3.1 °F 15.1 °F 88% 29.95 in 0.8 mi NE 16.1 mph - 0.00 in Snow Light Snow
11:10 AM 17.6 °F 2.7 °F 15.8 °F 93% 29.85 in 0.5 mi NE 16.1 mph - 0.00 in Fog , Snow Snow
12:53 PM 18.0 °F 3.6 °F 15.1 °F 88% 29.93 in 0.2 mi NNE 15.0 mph - 0.02 in Fog Light Freezing Fog
1:53 PM 19.0 °F 5.0 °F 15.1 °F 85% 29.92 in 0.5 mi North 15.0 mph - 0.02 in Fog , Snow Snow
2:50 PM 19.4 °F 5.5 °F 15.8 °F 86% 29.81 in 1.0 mi North 15.0 mph - 0.00 in Snow Light Snow
2:51 PM 19.0 °F 5.0 °F 15.1 °F 85% 29.90 in 1.0 mi North 15.0 mph - 0.00 in Snow Light Snow
3:07 PM 19.4 °F 4.1 °F 15.8 °F 86% 29.81 in 1.8 mi North 18.4 mph - 0.00 in Snow Light Snow
3:09 PM 19.4 °F 5.0 °F 15.8 °F 86% 29.81 in 2.0 mi North 16.1 mph - 0.00 in Snow Light Snow
3:25 PM 19.4 °F 4.1 °F 15.8 °F 86% 29.81 in 3.0 mi North 18.4 mph - 0.00 in Snow Light Snow
3:53 PM 19.0 °F 4.0 °F 15.1 °F 85% 29.90 in 7.0 mi North 17.3 mph - 0.00 in   Overcast
4:44 PM 19.4 °F 2.8 °F 15.8 °F 86% 29.82 in 2.5 mi North 21.9 mph - 0.00 in Snow Light Snow
4:53 PM 19.0 °F 4.0 °F 15.1 °F 85% 29.91 in 2.5 mi North 17.3 mph - 0.00 in Snow Light Snow
5:07 PM 19.4 °F 4.1 °F 15.8 °F 86% 29.83 in 2.0 mi North 18.4 mph - 0.00 in Snow Light Snow
5:18 PM 17.6 °F 1.7 °F 14.0 °F 86% 29.83 in 3.0 mi North 18.4 mph - 0.00 in Snow Light Snow
5:25 PM 17.6 °F 2.7 °F 14.0 °F 86% 29.83 in 1.8 mi North 16.1 mph - 0.00 in Snow Light Snow
5:37 PM 17.6 °F 2.7 °F 15.8 °F 93% 29.83 in 1.2 mi North 16.1 mph - 0.00 in Snow Light Snow
5:45 PM 17.6 °F 1.3 °F 14.0 °F 86% 29.83 in 2.0 mi North 19.6 mph - 0.00 in Snow Light Snow
5:53 PM 18.0 °F 3.1 °F 14.0 °F 84% 29.94 in 3.0 mi North 16.1 mph - 0.00 in Snow Light Snow
6:07 PM 17.6 °F 2.7 °F 14.0 °F 86% 29.84 in 2.0 mi North 16.1 mph - 0.00 in Snow Light Snow
6:11 PM 17.6 °F 2.2 °F 14.0 °F 86% 29.84 in 1.8 mi North 17.3 mph - 0.00 in Snow Light Snow
6:21 PM 17.6 °F 1.3 °F 14.0 °F 86% 29.84 in 2.0 mi North 19.6 mph - 0.00 in Snow Light Snow
6:30 PM 17.6 °F 1.7 °F 14.0 °F 86% 29.85 in 5.0 mi North 18.4 mph - 0.00 in   Overcast
6:53 PM 17.1 °F 1.0 °F 14.0 °F 88% 29.95 in 2.5 mi North 18.4 mph - 0.00 in Snow Light Snow
7:05 PM 17.6 °F 2.2 °F 14.0 °F 86% 29.85 in 5.0 mi North 17.3 mph - 0.00 in Snow Light Snow
7:19 PM 17.6 °F 1.7 °F 12.2 °F 79% 29.86 in 10.0 mi North 18.4 mph - 0.00 in   Overcast
7:53 PM 17.1 °F 1.5 °F 12.9 °F 84% 29.97 in 10.0 mi North 17.3 mph - 0.00 in   Overcast
9:53 PM 15.1 °F 1.8 °F 12.0 °F 88% 30.01 in 10.0 mi NNW 11.5 mph - N/A   Mostly Cloudy
10:53 PM 16.0 °F 2.9 °F 12.0 °F 84% 30.02 in 10.0 mi NW 11.5 mph - N/A   Overcast
11:53 PM 14.0 °F 2.0 °F 10.9 °F 88% 30.03 in 10.0 mi WNW 9.2 mph - N/A   Overcast